Hauptseite
METAR-TAF:

METAR-TAF

Flughäfen :

Bohrplattform

Awg-1, Niederlande

Breite: 53-29-30N, Länge: 5-56-30E, Höhe: 33 m

Beobachtung

Neuester Wetterbericht von vor 26 Minuten, um 18:55 UTC
Wind 18 kt aus Ost/Südost
Temperatur 7°C
Luftfeuchtigkeit 81%
Luftdruck 1030 hPa
Leicht bewölkt in der Höhe von 1100 ft
Aufgelockert bewölkt in der Höhe von 1400 ft
Durchbrochene Bewölkung in der Höhe von 1700 ft

METAR: EHMA 181855Z AUTO 11018KT //// // FEW011 SCT014 BKN017 07/04 Q1030 RE// W///H///

Zeit: 20:21 (19:21 UTC)


TAF: fehlend

Wetterbeobachtungen und Prognosen von mehr als 4000 Flughäfen (METAR und TAF Bericht).

Die verfügbaren Stationen werden durch gelbe und rote Markierungen auf der Karte dargestellt.

Führen Sie die Maus auf sie, um den Namen der Station zu sehen.

Darauf klicken, um die Beobachtung von Wetterbeobachtungen und Prognosen zu sehen.

Um die Karte zu ändern : klicken Sie auf den grünen Tasten mit einem schwarzen Kreuz Zum Vergrößern, auf den grünen Button mit einem Gedankenstrich zu verkleinern, oder auf die grünen Pfeile für benachbarte Karten.


METAR-TAF: